RS29S (SXC3-2110 CYCLO*) (53373 NORAD) Tracking and Keplerian Element Data

This shows tracking and keplerian element data for the satellite.

Feedback or suggestion? Click here.




ElementValue
Catalog53373
NameRS29S (SXC3-2110 CYCLO*)
Epoch Orbit1581
Epoch Day325.03302821
Epoch Year2022
RAAN225.8109
Inclination97.4272
Eccentricity0.0002407
Argument of Perigee106.4498
Mean Anonmoly9.2127
Mean Motion15.26957493
Decay Rate0.00011488
L11 53373U 22096D 22325.03302821 .00011488 00000+0 43659-3 0 9994
L22 53373 97.4272 225.8109 0002407 106.4498 9.2127 15.26957493 15813



Live tracking and technical data element details for RS29S (SXC3-2110 CYCLO*) (NORAD 53373). RS29S (SXC3-2110 CYCLO*) can be tracked NOW for your location showing map with azimuth and elevation plus other details from your city location.







IsCatalogInMostPopularTable: catalog: 53373, numindb: 3
Update: records affected: 1



GetName: 53373 RS29S (SXC3-2110 CYCLO*)

Hit Count: updated at: Tue, 29 Nov 2022 01:13:13 GMT